Flag for Nepal Weather past 2 weeks in Pokhara, Nepal

Now
39 °F

Fog.


Feels Like: 37 °F
Forecast: 42 / 66 °F
Wind: 3 mph from South

Location: Kathmandu Airport

Current Time: Feb 1, 2015 at 6:37:11 AM

Latest Report: Feb 1, 2015 at 5:35 AM


Visibility: 2 mi

Pressure: 30.12 "Hg

Humidity: 93%

Dew point: 37 °F

Location of PokharaLocation

Historic Weather in Pokhara — Graph

°F

Pokhara temperature yesterday

Maximum temperature yesterday: 63 °F (at 2:35 PM)
Minimum temperature yesterday: 36 °F (at 4:35 AM)
Average temperature yesterday: 47 °F

Past Weeks' High & Low Weather Summary

 TemperatureHumidityPressure
High68 °F (Jan 28, 2:35 PM)100% (Jan 17, 6:35 AM)30.36 "Hg (Jan 17, 6:35 AM)
Low36 °F (Jan 28, 6:35 AM)14% (Jan 29, 2:35 PM)29.98 "Hg (Jan 30, 3:35 PM)
Average50 °F70%30.14 "Hg
* Reported Jan 17 5:35 AM — Feb 1 5:35 AM, Pokhara, Weather by CustomWeather, © 2014

Note: Actual official high and low records may vary slightly from our data, if they occured in-between our weather recording intervals... More about our weather records

Advertising

Pokhara weather history for previous 24 hours

 ConditionsComfort  
Time TempWeatherWind HumidityBarometerVisibility
5:35 AM
Feb 1
39 °FFog.3 mph93%30.12 "Hg2 mi
4:35 AM39 °FFog.No wind100%30.09 "Hg2 mi
3:35 AM41 °FFog.No wind93%30.12 "Hg2 mi
2:35 AM41 °FFog.No wind93%30.12 "Hg2 mi
1:35 AM43 °FPassing clouds.2 mph87%30.15 "Hg4 mi
12:35 AM45 °FPassing clouds.No wind81%30.15 "Hg4 mi
11:35 PM
Jan 31
43 °FPassing clouds.3 mph87%30.15 "Hg4 mi
10:35 PM46 °FPassing clouds.3 mph82%30.15 "Hg4 mi
9:35 PM46 °FPassing clouds.5 mph82%30.15 "Hg4 mi
8:35 PM46 °FPassing clouds.5 mph82%30.12 "Hg4 mi
7:35 PM48 °FPassing clouds.7 mph76%30.09 "Hg4 mi
6:35 PM50 °FPassing clouds.13 mph71%30.07 "Hg4 mi
5:35 PM52 °FPassing clouds.14 mph67%30.04 "Hg4 mi
4:35 PM55 °FPassing clouds.16 mph59%30.04 "Hg5 mi
3:35 PM59 °FPassing clouds.12 mph42%30.01 "Hg5 mi
2:35 PM63 °FPassing clouds.5 mph32%30.04 "Hg5 mi
1:35 PM61 °FPassing clouds.3 mph31%30.07 "Hg5 mi
12:35 PM61 °FPassing clouds.5 mph31%30.09 "Hg5 mi
11:35 AM57 °FPassing clouds.No wind44%30.12 "Hg4 mi
10:35 AM54 °FHaze.No wind54%30.12 "Hg2 mi
9:35 AM46 °FHaze.No wind66%30.15 "Hg2 mi
8:35 AM41 °FFog.3 mph81%30.12 "Hg2 mi
7:35 AM36 °FFog.No wind93%30.09 "Hg2 mi
6:35 AM36 °FFog.No wind93%30.07 "Hg2 mi
Weather by CustomWeather, © 2014

See weather overviewHow to use our weather pages